Weather in Bichevaya

Russia / Khabarovsk Krai     47°46′32″N   135°37′46″E
temp.,
°C
wind,
m/s
gust,
m/s
humid.,
%
clouds,
%
prec.,
mm/h
press.,
hPa
HPBL,
m
27 february, sat
sat2701:00−22sse229866 0.0 103525
04:00−22se229633 0.0 103636
07:00−23se23950 0.0 103743
10:00−18sse34894 0.0 1035179
13:00−11sse358333 0.0 1033405
16:00−7sse257965 0.0 1029604
19:00−9se3589100 0.0 102689
22:00−9se2487100 0.0 1024110
28 february, sun
sun2801:00−7sse41680100 0.0 1021619
04:00−6s51587100 0.1 1019638
07:00−6ssw51295100 2.1 1018764
10:00−3sw4996100 3.9 1018646
13:00−4w4890100 1.3 1019776
16:00−6w4983100 1.3 1020845
19:00−12wsw2888100 0.0 1023624
22:00−14wsw2991100 0.0 1025415
1 march, mon
mon101:00−16wsw2295100 0.0 102658
04:00−21wsw129996 0.0 102831
07:00−23ssw239738 0.0 103040
10:00−19sw258821 0.0 1032475
13:00−15w377018 0.0 1031857
16:00−15w47739 0.0 1032995
19:00−20wsw22880 0.0 103325
22:00−22sse22860 0.0 103420
2 march, tue
tue201:00−23se229036 0.0 103432
04:00−24se229168 0.0 103335
07:00−23se2293100 0.0 103441
10:00−19s1287100 0.0 1033203
13:00−15wnw237059 0.0 1031855
16:00−15nw247530 0.0 1030851
19:00−21wnw11942 0.0 103120
22:00−23se11931 0.0 103320
3 march, wed
wed301:00−24se12920 0.0 103220
04:00−25se22910 0.0 103120
07:00−26se23910 0.0 103141
10:00−20se34860 0.0 1030155
13:00−13se34760 0.0 1026405
16:00−9sse267433 0.0 1022647
19:00−11sse2384100 0.0 102046
22:00−10sse2987100 0.0 1020343